Retour au catalogue

COSMOS 1823 DEB

ActifLEO
NORAD 39819·DEBRIS·🇷🇺 Russia

Lancé Feb 20, 1987 depuis Plesetsk Cosmodrome

Loading…

Prochains Passages (prochaines 24 heures)

TLE

PériméSource: Space-Track

Époque: Sep 1, 2026, 23:54 UTC

1 39819U 87020ET  26244.99636718  .00000072  00000-0  63726-3 0  9990
2 39819  73.6762 336.1173 0027138 332.3892  27.5710 12.43301921556507

Suivez COSMOS 1823 DEB en temps réel avec AllMySat

Download on the App Store